Change the Weather History Date:

Tuesday, November 13, 2012

  Actual Average Record
Temperature  
Mean Temperature 48 °F -  
Max Temperature 50 °F 57 °F 57 °F (1976)
Min Temperature 46 °F 27 °F 15 °F (2014)
Degree Days  
Heating Degree Days 17    
Moisture  
Dew Point 45 °F    
Average Humidity 90    
Maximum Humidity 93    
Minimum Humidity 82    
Precipitation  
Precipitation 0.17 in - - ()
Sea Level Pressure  
Sea Level Pressure 30.19 in    
Wind  
Wind Speed 5 mph (SE)    
Max Wind Speed 12 mph    
Max Gust Speed -    
Visibility 9 miles    
Events      
Averages and records for this station are not official NWS values.
T = Trace of Precipitation, MM = Missing Value Source: NWS Daily Summary

Daily Weather History Graph

Daily Weather History Graph

Search for Another Location

Airport or City:

Trip Planner

Search our weather history database for the weather conditions in past years. The results will help you decide how hot, cold, wet, or windy it might be!

Date:

Astronomy

Nov. 13, 2012 Rise Set
Actual Time 7:13 AM PST 4:32 PM PST
Civil Twilight 6:39 AM PST 5:05 PM PST
Nautical Twilight 6:01 AM PST 5:43 PM PST
Astronomical Twilight 5:25 AM PST 6:20 PM PST
Moon 6:59 AM PST (11/13) 4:27 PM PST (11/13)
Length of Visible Light 10h 26m
Length of Day
9h 18m
Waning Crescent, 0% of the Moon is Illuminated
Nov 13
Waning Crescent
Nov 13
New
Nov 20
First Quarter
Nov 28
Full
Dec 6
Last Quarter

Hourly Weather History & Observations

Time (PST) Temp. Windchill Dew Point Humidity Pressure Visibility Wind Dir Wind Speed Gust Speed Precip Events Conditions
12:15 AM 48.2 °F - 44.6 °F 87% 30.22 in 10.0 mi SSE 11.5 mph - N/A   Overcast
12:35 AM 48.2 °F - 44.6 °F 87% 30.22 in 10.0 mi SE 11.5 mph - N/A   Overcast
12:55 AM 48.2 °F - 44.6 °F 87% 30.22 in 10.0 mi SSE 10.4 mph - N/A   Overcast
1:35 AM 48.2 °F - 44.6 °F 87% 30.22 in 10.0 mi SSE 9.2 mph - N/A   Overcast
1:55 AM 48.2 °F - 44.6 °F 87% 30.22 in 10.0 mi SE 9.2 mph - N/A   Overcast
2:15 AM 48.2 °F - 44.6 °F 87% 30.22 in 10.0 mi SSE 5.8 mph - N/A   Overcast
2:35 AM 48.2 °F - 44.6 °F 87% 30.22 in 9.0 mi South 5.8 mph - 0.03 in   Overcast
2:55 AM 48.2 °F - 44.6 °F 87% 30.22 in 9.0 mi Calm Calm - 0.07 in   Overcast
3:15 AM 48.2 °F - 44.6 °F 87% 30.21 in 7.0 mi Calm Calm - 0.05 in   Overcast
3:35 AM 48.2 °F - 44.6 °F 87% 30.21 in 7.0 mi Calm Calm - 0.07 in   Overcast
3:55 AM 46.4 °F 45.2 °F 44.6 °F 93% 30.21 in 3.0 mi SSE 3.5 mph - 0.07 in   Overcast
4:15 AM 48.2 °F - 44.6 °F 87% 30.21 in 10.0 mi Calm Calm - N/A   Overcast
4:35 AM 48.2 °F - 44.6 °F 87% 30.21 in 10.0 mi Calm Calm - N/A   Overcast
4:55 AM 48.2 °F - 44.6 °F 87% 30.21 in 10.0 mi SE 3.5 mph - N/A   Overcast
5:15 AM 46.4 °F - 44.6 °F 93% 30.21 in 8.0 mi Calm Calm - N/A   Overcast
5:35 AM 48.2 °F - 44.6 °F 87% 30.21 in 10.0 mi SSE 4.6 mph - N/A   Overcast
5:55 AM 48.2 °F - 44.6 °F 87% 30.21 in 10.0 mi SSE 5.8 mph - N/A   Overcast
6:15 AM 48.2 °F - 44.6 °F 87% 30.21 in 10.0 mi Calm Calm - N/A   Overcast
6:35 AM 48.2 °F - 44.6 °F 87% 30.21 in 10.0 mi Calm Calm - N/A   Overcast
6:55 AM 48.2 °F - 44.6 °F 87% 30.21 in 10.0 mi Calm Calm - N/A   Overcast
7:15 AM 48.2 °F - 44.6 °F 87% 30.21 in 10.0 mi Calm Calm - N/A   Overcast
7:35 AM 48.2 °F - 44.6 °F 87% 30.21 in 10.0 mi SE 8.1 mph - N/A   Overcast
8:15 AM 48.2 °F - 44.6 °F 87% 30.21 in 10.0 mi SE 9.2 mph - N/A   Overcast
8:35 AM 48.2 °F - 44.6 °F 87% 30.21 in 10.0 mi SE 11.5 mph - N/A   Overcast
8:55 AM 48.2 °F - 44.6 °F 87% 30.21 in 10.0 mi SE 10.4 mph - N/A   Overcast
9:15 AM 48.2 °F - 44.6 °F 87% 30.22 in 10.0 mi SE 6.9 mph - N/A   Overcast
9:35 AM 48.2 °F - 44.6 °F 87% 30.22 in 10.0 mi SE 6.9 mph - N/A   Overcast
9:55 AM 48.2 °F - 44.6 °F 87% 30.22 in 10.0 mi SE 5.8 mph - N/A   Overcast
10:15 AM 50.0 °F - 44.6 °F 82% 30.22 in 10.0 mi Calm Calm - N/A   Overcast
10:55 AM 50.0 °F - 44.6 °F 82% 30.22 in 10.0 mi Calm Calm - N/A   Overcast
11:15 AM 46.4 °F - 42.8 °F 87% 30.21 in 10.0 mi North - - N/A   Overcast
11:35 AM 46.4 °F 44.3 °F 44.6 °F 93% 30.20 in 10.0 mi North 4.6 mph - N/A   Overcast
11:55 AM 46.4 °F 45.2 °F 44.6 °F 93% 30.19 in 10.0 mi North 3.5 mph - N/A   Overcast
12:15 PM 46.4 °F 43.5 °F 44.6 °F 93% 30.19 in 10.0 mi NNE 5.8 mph - N/A   Overcast
12:35 PM 48.2 °F - 46.4 °F 93% 30.18 in 10.0 mi NE 4.6 mph - N/A   Overcast
12:55 PM 48.2 °F - 46.4 °F 93% 30.18 in 10.0 mi NNE 4.6 mph - N/A   Overcast
1:15 PM 48.2 °F - 46.4 °F 93% 30.18 in 10.0 mi Calm Calm - N/A   Overcast
1:35 PM 48.2 °F - 44.6 °F 87% 30.18 in 10.0 mi Calm Calm - N/A   Overcast
1:55 PM 48.2 °F - 46.4 °F 93% 30.17 in 9.0 mi Calm Calm - N/A   Overcast
2:15 PM 48.2 °F - 46.4 °F 93% 30.17 in 7.0 mi Calm Calm - N/A   Overcast
2:35 PM 48.2 °F - 46.4 °F 93% 30.17 in 5.0 mi Calm Calm - 0.01 in   Overcast
2:55 PM 48.2 °F - 44.6 °F 87% 30.17 in 8.0 mi Calm Calm - 0.01 in   Overcast
3:15 PM 48.2 °F - 46.4 °F 93% 30.16 in 8.0 mi Calm Calm - N/A   Overcast
3:35 PM 48.2 °F - 46.4 °F 93% 30.16 in 10.0 mi Calm Calm - N/A   Mostly Cloudy
3:55 PM 48.2 °F - 46.4 °F 93% 30.16 in 10.0 mi Calm Calm - N/A   Overcast
4:15 PM 48.2 °F - 46.4 °F 93% 30.16 in 10.0 mi Calm Calm - N/A   Mostly Cloudy
4:35 PM 46.4 °F - 44.6 °F 93% 30.16 in 9.0 mi Calm Calm - 0.01 in   Overcast
4:55 PM 46.4 °F - 44.6 °F 93% 30.16 in 7.0 mi Calm Calm - 0.01 in   Overcast
5:15 PM 46.4 °F - 44.6 °F 93% 30.16 in 10.0 mi Calm Calm - N/A   Overcast
5:35 PM 46.4 °F - 44.6 °F 93% 30.16 in 8.0 mi Calm Calm - N/A   Overcast
5:55 PM 46.4 °F - 44.6 °F 93% 30.16 in 10.0 mi Calm Calm - N/A   Overcast
6:15 PM 46.4 °F - 44.6 °F 93% 30.16 in 10.0 mi Calm Calm - N/A   Mostly Cloudy
6:35 PM 48.2 °F - 44.6 °F 87% 30.15 in 10.0 mi Calm Calm - N/A   Overcast
6:55 PM 48.2 °F - 44.6 °F 87% 30.15 in 10.0 mi SE 4.6 mph - N/A   Mostly Cloudy
7:15 PM 48.2 °F - 44.6 °F 87% 30.15 in 10.0 mi Calm Calm - N/A   Overcast
7:35 PM 48.2 °F - 44.6 °F 87% 30.15 in 10.0 mi ESE 5.8 mph - N/A   Overcast
7:55 PM 48.2 °F - 44.6 °F 87% 30.15 in 10.0 mi Calm Calm - N/A   Overcast
8:15 PM 46.4 °F - 44.6 °F 93% 30.16 in 10.0 mi Calm Calm - N/A   Overcast
8:35 PM 46.4 °F - 44.6 °F 93% 30.16 in 10.0 mi Calm Calm - N/A   Overcast
8:55 PM 46.4 °F - 44.6 °F 93% 30.16 in 9.0 mi Calm Calm - N/A   Overcast
9:15 PM 46.4 °F - 44.6 °F 93% 30.16 in 7.0 mi Calm Calm - N/A   Overcast
9:35 PM 46.4 °F - 44.6 °F 93% 30.17 in 10.0 mi Calm Calm - N/A   Overcast
9:55 PM 46.4 °F - 44.6 °F 93% 30.18 in 10.0 mi Calm Calm - N/A   Overcast
10:15 PM 46.4 °F - 44.6 °F 93% 30.18 in 10.0 mi Calm Calm - N/A   Overcast
10:35 PM 46.4 °F - 44.6 °F 93% 30.17 in 10.0 mi Calm Calm - N/A   Overcast
10:55 PM 46.4 °F - 42.8 °F 87% 30.18 in 10.0 mi Calm Calm - 0.01 in   Overcast
11:15 PM 46.4 °F - 44.6 °F 93% 30.18 in 6.0 mi Calm Calm - N/A   Overcast
11:35 PM 46.4 °F - 42.8 °F 87% 30.19 in 10.0 mi Calm Calm - N/A   Overcast
11:55 PM 46.4 °F - 44.6 °F 93% 30.19 in 10.0 mi Calm Calm - N/A   Overcast